Location: Kervinic
(48.4279°N, 4.7373°W)
Time: 10:28:27
(UTC+00:00)

RESURS DK-1 - Pass Details

Date: 09 April 2020
Orbit: 557 x 561 km, 69.9° (Epoch: 25 May)

Event Time Altitude Azimuth Distance (km) Brightness Sun altitude
Rises 22:21:05 0° 322° (NW) 2,760 7.2 -27.8°
Reaches altitude 10° 22:23:29 10° 311° (NW) 1,859 5.9 -28.0°
Enters shadow 22:26:09 27° 276° (W) 1,109 4.1 -28.2°
